Terminal Aerodrome Forecast
Issued by NWS

Home | Current Version | Previous Version | Text Only | Print | Product List | Glossary On
Versions: 1 2 3 4 5 6 7 8 9 10 11 12 13 14 15 16 17 18 19
000
FTUS44 KTSA 240900 AAB
TAFXNA
TAF AMD
KXNA 240955Z 2410/2506 20010KT 4SM RA FEW008 BKN028 OVC040
      TEMPO 2412/2416 1SM +TSRA BKN022CB
     FM241600 17013G20KT 3SM -TSRA OVC015CB
      TEMPO 2503/2506 6SM -RA BR BKN025=

USA.gov is the U.S. government's official web portal to all federal, state and local government web resources and services.